Weather History for Daggett-Barstow, CA

Change the Weather History Date:

Sunday, March 16, 2014

  Actual Average Record
Temperature  
Mean Temperature 66 °F -  
Max Temperature 82 °F 70 °F 93 °F (2007)
Min Temperature 51 °F 46 °F 31 °F (1955)
Cooling Degree Days 2    
Growing Degree Days 16 (Base 50)    
Moisture  
Dew Point 19 °F    
Average Humidity 18    
Maximum Humidity 31    
Minimum Humidity 8    
Precipitation  
Precipitation 0.00 in - - ()
Sea Level Pressure  
Sea Level Pressure 30.20 in    
Wind  
Wind Speed 9 mph (WNW)    
Max Wind Speed 21 mph    
Max Gust Speed 26 mph    
Visibility 10 miles    
Events      
Averages and records for this station are not official NWS values.
T = Trace of Precipitation, MM = Missing Value Source: NWS Daily Summary

Daily Weather History Graph

Daily Weather History Graph

Search for Another Location

Airport:

Trip Planner

Search our weather history database for the weather conditions in past years. The results will help you decide how hot, cold, wet, or windy it might be!

Date:

Astronomy

Mar. 16, 2014 Rise Set
Actual Time 6:56 AM PDT 6:55 PM PDT
Civil Twilight 6:31 AM PDT 7:20 PM PDT
Nautical Twilight 6:01 AM PDT 7:50 PM PDT
Astronomical Twilight 5:32 AM PDT 8:19 PM PDT
Moon 7:15 PM PDT (3/16) 6:43 AM PDT (3/16)
Length of Visible Light 12h 49m
Length of Day
11h 59m
Full, 100% of the Moon is Illuminated
Mar 16
Full
Mar 23
Last Quarter
Mar 30
New
Apr 7
First Quarter
Apr 15
Full

Hourly Weather History & Observations

Time (PDT) Temp. Dew Point Humidity Pressure Visibility Wind Dir Wind Speed Gust Speed Precip Events Conditions
12:50 AM 57.9 °F 18.0 °F 21% 30.25 in 10.0 mi West 10.4 mph - N/A   Clear
1:50 AM 57.9 °F 16.0 °F 19% 30.26 in 10.0 mi West 13.8 mph - N/A   Clear
2:50 AM 55.9 °F 18.0 °F 23% 30.25 in 10.0 mi West 11.5 mph - N/A   Clear
3:50 AM 54.0 °F 18.0 °F 24% 30.24 in 10.0 mi West 10.4 mph - N/A   Clear
4:50 AM 52.0 °F 19.0 °F 27% 30.25 in 10.0 mi WSW 10.4 mph - N/A   Clear
5:50 AM 55.0 °F 21.0 °F 27% 30.27 in 10.0 mi West 15.0 mph - N/A   Clear
6:50 AM 51.1 °F 21.0 °F 31% 30.29 in 10.0 mi WNW 6.9 mph - N/A   Clear
7:50 AM 52.0 °F 21.0 °F 30% 30.32 in 10.0 mi West 13.8 mph - N/A   Clear
8:50 AM 59.0 °F 25.0 °F 27% 30.32 in 10.0 mi West 10.4 mph - N/A   Clear
9:50 AM 64.0 °F 27.0 °F 25% 30.32 in 10.0 mi WNW 5.8 mph - N/A   Clear
10:50 AM 70.0 °F 28.9 °F 22% 30.30 in 10.0 mi Calm Calm - N/A   Clear
11:50 AM 73.0 °F 28.0 °F 19% 30.28 in 10.0 mi Variable 4.6 mph - N/A   Clear
12:50 PM 77.0 °F 19.9 °F 12% 30.25 in 10.0 mi ESE 4.6 mph - N/A   Clear
1:50 PM 80.1 °F 19.0 °F 10% 30.21 in 10.0 mi NE 5.8 mph - N/A   Clear
2:50 PM 81.0 °F 15.1 °F 8% 30.17 in 10.0 mi NE 6.9 mph - N/A   Clear
3:50 PM 81.0 °F 16.0 °F 9% 30.15 in 10.0 mi East 4.6 mph - N/A   Clear
4:50 PM 82.9 °F 14.0 °F 8% 30.11 in 10.0 mi North 5.8 mph - N/A   Clear
5:50 PM 82.0 °F 14.0 °F 8% 30.09 in 10.0 mi NE 3.5 mph - N/A   Clear
6:50 PM 77.0 °F 18.0 °F 11% 30.08 in 10.0 mi East 3.5 mph - N/A   Clear
7:50 PM 71.1 °F 15.1 °F 12% 30.08 in 10.0 mi SSW 6.9 mph - N/A   Clear
8:50 PM 68.0 °F 14.0 °F 12% 30.07 in 10.0 mi SW 5.8 mph - N/A   Clear
9:50 PM 62.1 °F 18.0 °F 18% 30.08 in 10.0 mi West 5.8 mph - N/A   Clear
10:50 PM 71.1 °F 19.9 °F 14% 30.06 in 10.0 mi WSW 20.7 mph - N/A   Clear
11:50 PM 68.0 °F 21.9 °F 17% 30.03 in 10.0 mi West 9.2 mph 26.5 mph N/A   Clear